Regional Weather Roundup
Issued by NWS

Home | Current Version | Previous Version | Graphics & Text | Print | Product List | Glossary On
Versions: 1 2 3 4 5 6 7 8 9 10 11 12 13 14 15 16 17 18 19 20 21 22 23 24 25 26 27 28 29 30 31 32 33 34 35 36 37 38 39 40 41 42 43 44 45 46 47 48 49 50
000
ASUS43 KBIS 030701
RWRND

NORTH DAKOTA REGIONAL WEATHER ROUNDUP
NATIONAL WEATHER SERVICE BISMARCK ND
200 AM CDT SUN MAY 03 2015

NOTE: "FAIR" INDICATES FEW OR NO CLOUDS BELOW 12,000 FEET WITH NO
SIGNIFICANT WEATHER AND/OR OBSTRUCTIONS TO VISIBILITY.


NDZ001>003-009>011-017-030800-
NORTHWEST NORTH DAKOTA

CITY           SKY/WX    TMP DP  RH WIND       PRES   REMARKS
WILLISTON      MOCLDY    49  34  56 N9        29.86R
MINOT          PTCLDY    51  35  54 NW15      29.79R
MINOT AFB      MOCLDY    51  37  60 NW10      29.78R
$$

NDZ018>021-031>035-040>046-030800-
SOUTHWEST NORTH DAKOTA

CITY           SKY/WX    TMP DP  RH WIND       PRES   REMARKS
BISMARCK       MOCLDY    58  35  42 N14       29.75R
DICKINSON      CLOUDY    55  35  47 N10       29.83R
GARRISON         N/A     49  38  65 N5        29.79R
HETTINGER ARPT MOCLDY    53  33  46 N18       29.81R
$$

NDZ004>008-012>016-024-026-027-054-030800-
NORTHEAST NORTH DAKOTA

CITY           SKY/WX    TMP DP  RH WIND       PRES   REMARKS
GRAND FORKS    CLEAR     52  42  69 NW14      29.62R
GRND FRKS AFB  PTCLDY    53  39  59 N12       29.64R
DEVILS LAKE    PTCLDY    52  36  54 N10       29.71R
$$

NDZ022-023-025-028>030-036>039-047>053-030800-
SOUTHEAST NORTH DAKOTA

CITY           SKY/WX    TMP DP  RH WIND       PRES   REMARKS
FARGO          PTCLDY    58  50  75 S12       29.63R
JAMESTOWN      MOCLDY    53  37  54 NW8       29.67R
$$




USA.gov is the U.S. government's official web portal to all federal, state and local government web resources and services.